Wind_Speed
35 35 36 36 37 38 38 37 37 36 36 36 36 36 36 37 37 36 36 36 36 37 38 38 38 39 39 39 39 39 39 40 40 41 41 41 42 42 42 43 43 44 44 44 44 44 43 43 43 43 43 43 42 42 42 42 42 42 41 41 39 38 37 36 36 35 35 35 35 35 35 35 34 34 35 35 36 36 35 36 37 37 36 35 34 33
35 36 36 36 37 38 38 37 35 34 35 35 36 36 37 38 38 38 37 37 36 36 37 37 38 38 38 39 39 39 39 40 40 40 41 41 41 41 42 42 42 42 43 43 43 43 43 43 43 42 42 41 41 40 40 40 40 40 40 40 38 37 36 35 36 36 35 35 36 36 36 36 35 35 35 35 36 36 37 37 38 39 38 36 35 34
36 36 35 35 35 36 36 36 34 33 33 35 35 36 37 37 37 37 36 36 36 36 36 37 38 38 38 39 39 39 39 39 39 40 40 40 40 40 40 40 41 41 42 43 43 43 42 42 42 41 41 40 40 39 39 39 39 40 40 40 39 37 36 36 36 36 36 36 36 36 36 36 36 36 36 36 37 38 38 39 39 40 39 37 35 33
34 35 35 34 34 35 35 34 33 33 33 35 36 36 36 36 35 35 35 35 35 36 36 37 37 38 38 38 38 39 39 39 40 40 40 40 39 39 39 39 40 41 42 42 42 42 41 40 40 39 39 38 38 38 38 38 38 38 38 39 39 38 37 36 35 35 35 35 36 36 36 36 36 36 36 36 37 38 39 39 39 40 39 38 35 33
33 33 34 33 34 35 37 35 34 34 35 36 36 36 36 35 34 34 34 34 34 35 36 37 37 37 38 38 38 39 39 40 40 40 40 39 38 37 37 38 39 41 42 42 41 40 39 39 38 38 37 36 36 36 36 36 36 36 37 37 37 37 37 36 35 34 34 34 35 35 35 35 35 35 35 35 36 37 38 39 39 39 39 38 37 34
34 34 34 35 36 38 39 38 37 37 37 37 37 36 36 35 34 34 34 34 34 35 37 37 37 38 38 38 38 39 39 40 40 39 39 38 36 36 36 37 39 41 41 41 40 39 39 38 38 37 37 36 36 36 36 36 36 36 36 36 36 36 35 35 35 35 35 35 35 35 35 35 36 36 36 36 36 37 38 38 38 38 38 38 38 36
37 37 36 37 37 38 38 37 37 36 36 37 37 37 36 35 34 33 33 33 34 36 37 38 38 38 37 37 37 37 37 37 36 36 36 35 34 34 36 38 40 41 41 40 40 39 39 38 38 38 38 37 37 37 37 37 37 37 37 36 36 36 35 35 34 35 35 35 35 36 36 36 37 37 37 37 37 37 38 38 38 38 38 37 37 37
38 38 38 37 37 36 35 35 34 34 35 35 36 36 34 33 32 32 33 34 35 36 37 37 37 37 35 34 34 34 35 35 35 34 33 33 33 35 37 39 40 41 40 40 40 39 39 39 39 39 38 38 37 37 36 37 37 37 37 37 37 36 35 34 34 34 34 34 35 35 35 35 35 35 35 36 36 37 37 38 38 37 36 36 36 36
37 38 38 37 36 35 35 34 33 33 34 34 33 32 31 31 31 32 33 34 35 35 36 37 37 36 34 33 33 35 37 36 34 32 32 33 35 37 38 40 41 40 40 40 40 40 40 41 40 39 37 35 34 34 34 34 34 34 35 36 35 34 33 33 33 33 34 34 34 34 33 32 32 31 32 32 33 34 34 34 34 34 35 35 36 36
36 37 39 38 36 34 34 34 34 33 33 33 32 32 31 30 31 32 34 35 35 36 37 38 37 36 36 36 37 37 36 33 32 33 34 36 37 38 39 39 40 40 39 39 39 40 40 39 35 33 31 31 32 32 32 31 31 31 30 30 30 30 31 32 34 34 35 34 34 33 33 32 31 30 29 30 31 31 31 31 31 32 33 35 36 37
35 36 37 37 35 33 31 31 31 32 32 32 32 30 28 28 29 31 34 36 38 39 40 40 39 37 37 37 36 34 33 33 34 36 37 38 38 38 38 38 38 39 39 40 40 38 35 32 30 29 29 30 30 31 31 32 32 31 29 28 29 30 32 34 35 36 35 34 33 33 33 33 32 31 30 30 31 32 32 32 31 32 33 35 37 39
34 35 36 35 33 30 28 28 30 31 31 30 29 28 28 29 30 31 33 36 39 42 43 42 39 35 33 33 33 33 34 35 36 37 37 37 36 36 37 39 40 40 38 33 29 28 28 30 30 31 30 30 29 30 31 32 32 32 32 32 32 32 34 35 35 35 34 33 32 31 32 33 33 33 31 31 33 34 35 35 34 33 34 35 37 39
36 37 37 33 29 27 28 30 32 33 32 30 30 31 32 33 32 32 34 37 40 41 40 36 33 33 33 34 35 36 36 36 36 35 35 34 34 35 38 42 43 39 31 26 25 27 30 32 33 33 32 31 31 31 31 32 32 32 33 33 33 33 33 33 34 33 33 32 31 31 32 32 33 32 31 32 33 35 37 37 35 34 34 35 37 38
37 36 33 29 27 28 29 31 32 32 32 33 33 34 34 35 34 34 35 38 39 38 35 33 34 36 37 37 37 36 35 34 33 33 33 34 35 37 41 42 39 32 25 26 29 32 34 34 34 33 33 33 34 34 34 33 33 33 33 32 32 32 32 31 32 32 32 32 32 32 32 32 31 31 30 31 32 34 36 36 35 34 34 34 36 38
34 32 29 28 30 31 32 32 33 33 34 35 35 34 34 34 34 34 35 36 36 34 33 35 37 39 39 37 35 33 32 31 31 31 33 34 36 39 41 38 32 28 28 30 33 35 35 34 32 32 33 34 35 35 34 33 33 33 32 32 31 31 30 30 30 30 31 31 31 32 32 31 31 30 30 30 30 32 34 34 34 34 33 34 35 37
29 27 29 31 33 34 34 34 34 35 35 35 34 34 34 34 34 34 33 32 32 33 34 35 37 38 38 36 33 31 29 29 29 31 33 36 40 42 38 32 29 29 32 34 36 36 35 33 31 31 32 33 34 34 33 32 32 32 32 31 30 29 28 28 28 29 29 29 29 29 30 30 30 30 29 29 30 31 32 33 33 33 33 34 35 36
29 30 33 34 36 36 36 35 35 35 34 34 33 33 32 33 33 33 31 30 31 32 33 34 34 35 36 36 34 30 28 28 30 32 36 41 45 43 36 30 29 32 35 37 38 37 34 30 29 29 31 32 33 33 32 32 33 33 34 33 32 30 29 30 31 33 33 32 31 30 29 29 29 29 29 29 29 30 30 31 32 32 33 34 34 35
33 35 36 37 37 37 36 35 34 33 34 33 34 34 32 31 30 30 29 29 30 31 33 33 33 32 32 35 35 32 28 30 34 39 43 45 45 41 34 31 33 35 37 38 37 33 28 27 28 30 31 33 33 33 33 33 33 34 33 33 33 34 35 36 37 37 36 36 36 34 31 30 29 28 28 29 29 30 30 30 31 31 32 33 34 35
38 38 38 38 37 37 36 35 34 33 33 34 33 33 32 30 29 29 30 31 32 32 33 34 34 33 33 34 35 34 32 34 37 40 43 42 40 37 34 34 34 35 36 33 29 25 25 26 29 31 32 33 33 33 32 31 29 29 30 32 34 36 37 37 36 34 34 34 35 36 34 32 30 28 28 29 30 30 31 31 31 32 32 33 34 35
40 39 37 36 35 35 35 35 34 34 34 34 32 30 30 31 33 35 36 35 34 34 36 36 37 37 36 36 36 37 36 36 37 38 38 38 38 37 35 34 33 33 30 26 24 24 25 28 30 31 31 31 30 30 29 29 28 29 30 33 35 37 37 36 34 32 32 33 34 35 35 34 32 31 29 30 31 32 32 33 33 33 33 34 35 36
40 39 37 35 34 35 36 36 37 37 35 32 31 32 34 36 37 38 37 38 38 37 38 36 36 36 36 37 38 39 39 37 36 34 34 35 35 36 35 33 30 26 24 24 25 26 28 30 31 31 30 29 30 31 32 32 32 32 33 36 38 38 36 34 32 30 30 31 31 32 33 34 34 34 33 33 33 34 35 35 35 35 35 35 36 36
38 38 37 36 36 37 38 41 40 37 32 32 33 35 36 38 39 40 41 39 39 38 38 37 37 37 39 41 42 44 43 39 35 33 34 36 37 37 33 26 22 22 25 28 29 30 31 32 32 31 30 30 31 32 32 32 32 34 36 38 38 36 35 33 32 31 31 30 29 29 30 31 32 33 34 34 35 36 36 37 37 37 37 37 37 37
37 37 37 38 40 41 42 40 36 33 32 35 36 37 38 39 39 39 39 38 38 38 38 40 41 43 44 46 46 44 39 33 31 33 36 38 37 32 25 21 23 26 29 32 33 33 32 32 32 31 30 30 30 30 30 31 33 35 37 37 37 36 35 34 34 33 32 30 28 28 28 29 30 32 33 35 36 37 38 38 38 38 38 38 38 38
36 36 38 40 43 43 41 36 33 33 35 37 38 39 39 39 38 38 38 39 40 41 41 42 43 43 42 40 38 34 31 29 32 35 37 34 30 26 24 24 27 30 33 34 33 32 32 31 30 29 29 30 31 31 32 34 36 37 37 36 35 33 32 31 31 31 31 30 29 30 30 31 32 34 36 37 38 39 39 39 39 39 39 39 38 38
35 36 39 42 43 41 37 34 34 36 38 39 40 39 39 38 38 38 39 39 40 41 41 40 38 36 34 32 29 29 29 31 32 32 30 27 26 27 28 28 29 32 33 33 31 30 29 29 29 30 31 32 34 34 35 36 36 35 33 32 30 28 28 28 28 28 28 29 30 32 33 34 35 36 38 39 40 40 40 40 40 40 39 39 38 38
35 38 41 43 41 38 35 34 36 39 40 39 37 36 36 37 38 39 38 36 35 34 34 34 33 33 31 29 29 29 30 30 29 26 23 24 27 30 30 29 29 30 31 32 30 29 29 29 31 33 33 33 34 34 33 32 30 29 30 29 28 27 27 26 26 27 28 29 31 32 34 35 36 37 39 40 40 41 41 40 40 39 38 38 38 38
37 39 40 38 35 33 32 34 38 40 39 36 34 33 33 34 35 35 34 32 31 31 32 32 32 32 31 30 29 29 29 29 27 25 25 26 29 31 31 29 29 30 31 31 30 29 30 30 32 33 32 32 32 31 29 27 26 27 29 31 31 31 31 31 31 30 31 32 33 34 35 36 37 38 39 39 40 40 40 39 38 37 37 36 37 37
37 37 36 33 30 30 33 36 38 38 36 33 31 30 30 31 32 33 32 31 31 31 32 32 32 31 31 31 30 30 30 28 26 25 25 27 28 30 30 30 30 30 30 30 30 30 29 29 30 30 30 29 28 27 26 25 26 28 31 33 35 36 35 34 33 32 32 33 34 35 36 37 38 38 38 38 38 38 37 36 36 35 35 35 36 37
36 34 32 30 30 32 35 37 37 35 33 31 29 28 28 29 30 31 32 32 32 32 32 32 31 31 31 32 32 32 30 27 25 24 24 26 28 29 30 30 29 28 28 29 31 31 30 28 27 27 27 26 26 25 26 27 29 31 34 36 36 36 34 32 30 29 29 30 31 33 34 36 36 36 36 35 35 34 34 33 33 33 33 35 36 38
35 33 31 30 31 32 34 34 33 32 31 29 28 28 27 28 29 31 32 32 32 32 32 32 32 32 32 32 32 31 30 26 23 22 24 26 29 30 31 30 29 27 26 27 30 32 32 30 27 25 25 25 26 27 28 29 31 32 35 37 37 36 34 32 30 29 28 27 27 28 28 29 29 28 29 29 30 30 31 31 31 32 33 35 36 38
34 32 31 30 31 31 31 30 30 30 29 29 29 28 28 28 29 30 31 31 31 31 31 32 32 33 32 31 30 29 29 27 25 24 26 28 30 32 33 31 28 26 25 26 28 30 32 33 30 26 24 25 27 29 29 29 29 31 33 35 37 37 35 33 32 31 29 27 25 23 21 19 18 18 20 23 24 26 27 28 29 30 32 33 35 36
32 30 29 30 30 30 29 29 29 29 30 29 29 29 28 28 28 29 29 30 30 31 31 33 33 33 32 31 30 30 30 30 29 28 29 30 32 34 33 30 28 27 27 27 28 29 30 31 31 30 28 27 27 28 28 28 29 30 32 34 36 36 35 33 33 32 30 27 23 18 14 11 11 13 16 19 20 21 22 24 25 27 29 30 32 34
30 29 29 30 30 30 29 29 29 30 30 29 29 29 29 28 28 28 28 29 30 31 31 32 32 33 32 32 32 32 32 31 31 30 30 32 34 35 33 30 28 28 29 30 30 29 29 30 31 32 30 29 27 27 27 28 29 31 33 34 35 35 34 33 33 32 29 25 19 14 9 7 8 9 11 14 16 15 16 18 20 22 24 25 27 29
29 29 30 30 30 30 30 30 30 30 29 29 29 28 28 28 28 28 29 30 30 31 31 31 31 32 33 33 33 33 32 32 32 33 33 34 35 35 33 30 29 29 31 31 31 30 29 30 30 29 29 28 28 28 27 28 29 31 32 33 33 33 33 32 32 30 27 21 16 11 7 7 7 4 4 10 12 11 11 12 13 15 17 19 21 23
29 29 30 30 30 30 30 30 30 30 29 29 29 28 28 28 29 29 30 31 31 31 31 31 32 33 34 35 34 34 34 35 36 36 37 37 37 36 34 31 30 31 32 32 31 29 28 29 29 29 28 29 29 28 28 27 27 29 30 31 31 31 31 31 30 28 24 19 13 9 7 7 9 7 3 7 10 10 9 10 11 13 14 16 17 18
29 30 30 30 30 30 29 30 30 30 29 29 29 29 29 29 30 31 32 33 33 33 33 34 35 35 35 35 36 37 37 39 39 40 40 40 38 36 33 33 33 33 33 32 31 30 29 28 29 28 28 27 27 27 27 27 27 28 29 31 31 31 30 28 27 26 23 18 13 8 6 8 10 9 7 6 9 10 10 11 13 14 16 16 17 18
30 30 30 30 29 30 30 30 30 30 29 29 30 30 31 32 32 32 33 35 35 36 35 36 36 36 36 37 37 39 41 42 42 43 42 40 37 34 33 34 35 34 33 33 32 32 30 28 28 27 26 25 25 25 26 27 27 28 29 31 32 31 28 26 25 25 22 16 11 6 5 8 10 10 8 8 10 11 12 13 14 15 16 18 19 19
30 30 30 30 30 30 30 30 30 30 30 30 31 32 32 33 33 34 35 35 36 35 35 35 36 37 37 38 39 40 41 42 41 40 38 35 34 34 35 36 36 36 34 33 33 32 30 27 26 25 24 25 25 26 27 27 28 28 30 32 31 28 26 25 25 23 18 12 7 3 5 9 10 10 9 9 10 12 13 14 15 15 16 17 18 20
30 30 31 30 30 30 30 30 31 31 31 32 32 33 33 33 34 34 34 34 34 34 34 34 35 37 38 39 39 39 38 37 35 33 33 33 34 35 35 36 35 34 33 32 31 29 26 25 24 24 25 26 26 27 28 27 27 28 30 31 28 25 24 25 24 21 15 7 3 4 7 10 10 10 9 9 11 13 15 16 17 17 17 18 18 19
31 31 31 31 31 31 31 31 31 32 32 33 33 34 33 33 33 32 32 33 33 33 33 34 35 37 38 39 37 35 33 31 31 32 33 33 33 32 32 32 32 32 31 29 26 25 25 26 27 27 27 27 27 27 27 27 27 28 28 28 26 25 24 24 23 18 10 3 2 6 10 12 12 11 11 11 13 16 18 20 21 21 21 21 22 22
31 31 31 31 31 32 31 31 32 33 33 33 33 32 32 32 32 31 32 32 32 33 33 35 36 37 37 36 34 32 30 31 31 32 31 30 29 28 28 28 28 28 27 27 27 29 29 28 28 27 27 27 26 26 26 26 27 26 24 24 24 24 24 23 20 14 6 0 4 8 11 13 14 14 13 12 15 19 21 22 23 24 24 25 27 28
31 31 32 32 32 32 32 33 33 33 32 32 31 31 31 31 32 32 32 32 32 33 34 35 36 36 35 33 32 31 31 31 30 30 29 27 26 25 24 24 24 25 26 28 28 28 27 25 24 24 24 24 25 25 26 26 26 24 22 21 22 23 23 21 17 10 2 2 6 9 13 15 16 16 17 17 19 21 22 23 25 26 28 29 30 30
31 31 32 32 32 33 33 33 33 32 31 31 31 31 32 31 31 31 32 32 33 34 35 36 35 34 32 32 31 31 31 30 29 28 27 25 23 22 22 22 24 25 26 26 25 24 23 22 22 22 22 22 23 23 24 24 24 22 21 19 19 20 20 20 14 7 1 4 8 11 14 16 17 17 17 19 20 21 22 23 25 27 28 28 29 29
31 32 32 33 33 33 33 32 32 31 31 31 32 32 32 33 33 33 33 33 34 34 35 35 33 31 30 29 30 30 30 29 28 26 24 23 21 21 22 24 25 25 24 23 22 22 22 21 21 21 21 21 21 21 22 23 22 20 19 18 17 18 20 18 12 4 3 6 9 12 15 17 17 17 17 18 19 19 19 20 21 23 24 26 27 28
32 32 33 33 32 32 32 32 32 32 32 32 32 33 32 33 33 33 33 34 34 35 34 33 31 30 28 28 29 30 29 29 27 25 23 22 22 23 24 24 24 23 22 20 20 19 19 19 20 20 19 19 20 20 20 20 19 18 17 17 18 18 18 15 8 1 6 8 9 12 15 16 17 18 18 17 17 17 17 17 18 18 20 22 24 27
32 32 33 33 33 32 32 32 32 32 31 32 32 33 33 33 33 34 34 34 34 34 33 32 30 29 28 29 29 28 28 27 26 24 23 23 24 25 25 24 22 20 19 18 17 17 17 17 16 17 17 17 18 17 16 16 16 17 17 17 18 17 16 10 2 6 9 10 11 12 14 15 17 18 19 19 18 18 17 17 17 18 18 20 22 25
33 33 33 33 33 32 32 32 32 32 31 32 33 34 34 34 34 34 35 34 33 32 31 30 30 29 29 28 28 27 26 25 24 24 24 25 26 25 24 22 20 18 16 15 14 14 13 12 12 12 12 13 14 14 13 13 14 14 15 16 16 15 13 6 4 10 12 12 12 12 13 14 16 18 20 20 21 21 21 21 21 20 21 21 22 24
33 33 33 33 33 33 33 33 32 32 32 32 33 34 33 34 34 34 34 33 31 30 29 30 30 29 28 27 26 25 24 24 24 25 26 26 26 25 23 21 18 16 14 12 11 10 9 8 8 8 8 9 10 11 11 12 12 13 13 13 13 12 8 3 9 13 14 14 14 13 12 13 15 17 19 21 22 24 25 25 25 25 25 25 25 26
34 34 33 34 34 34 33 33 32 32 32 33 34 34 34 34 34 33 32 31 30 29 30 30 30 29 28 27 26 25 24 24 24 25 26 26 26 24 22 20 18 15 13 10 7 6 5 5 5 6 6 7 8 9 9 10 10 11 11 11 10 7 4 7 12 14 15 15 15 14 14 14 15 17 19 22 25 26 27 27 28 28 27 27 28 28
34 34 33 33 33 33 33 33 33 33 34 34 34 35 35 34 34 32 31 29 29 29 29 29 29 28 27 26 25 24 23 24 25 25 26 26 25 24 21 20 18 16 13 9 6 4 4 5 4 5 5 6 6 7 6 7 7 8 8 7 6 5 8 11 14 15 16 17 17 17 17 18 18 19 20 24 27 28 28 28 28 28 28 28 28 29
34 34 34 33 33 34 34 34 34 33 34 34 34 35 35 35 34 32 30 29 29 29 30 29 28 26 25 24 24 23 24 24 24 25 26 26 25 23 21 19 18 17 14 11 8 6 5 5 3 4 5 4 4 4 3 3 4 4 5 5 6 9 13 14 16 17 18 19 20 20 21 22 23 23 24 27 29 30 30 29 29 28 28 29 30 31
Wind_Direction
295 296 298 298 298 298 297 296 296 296 297 298 300 301 302 300 298 297 296 296 297 298 298 298 298 297 297 296 295 294 294 293 293 292 291 291 290 290 290 290 290 291 290 290 290 289 288 288 287 286 285 284 284 283 282 281 280 279 278 277 277 276 277 276 276 275 276 275 273 272 270 269 268 268 267 265 264 264 263 263 262 260 258 256 256 257
296 296 297 298 298 297 295 295 295 295 296 298 299 300 301 300 298 296 295 296 296 297 298 298 298 297 296 295 294 294 293 293 292 292 291 291 290 290 290 290 291 291 291 290 290 289 288 288 287 286 285 285 284 283 282 282 281 280 280 279 277 276 275 274 274 275 276 276 275 274 272 271 269 268 267 264 262 260 260 260 259 258 257 255 254 254
297 297 297 298 297 296 295 295 295 295 296 298 300 300 300 299 297 295 295 296 297 297 298 298 298 297 296 295 294 293 293 292 292 291 291 291 290 290 290 290 291 291 291 291 290 289 288 287 286 285 284 284 283 282 282 281 281 281 280 279 278 276 275 274 274 274 275 276 276 276 274 272 270 269 267 264 261 258 257 257 257 257 256 255 254 254
296 297 297 299 298 297 296 296 296 296 297 298 300 300 300 298 296 296 295 296 297 298 298 298 297 296 295 294 293 293 292 291 291 290 290 290 289 289 290 291 292 292 292 291 290 289 288 287 286 284 283 283 282 281 281 280 280 280 280 279 279 278 278 277 277 276 276 276 276 276 275 274 272 270 268 266 263 260 258 257 257 256 255 254 254 255
295 296 298 299 299 298 297 296 296 297 298 298 299 299 299 297 296 296 296 296 297 298 299 298 297 295 294 293 292 292 291 290 289 289 288 288 288 288 290 292 294 294 293 292 291 290 289 288 287 286 285 284 282 282 281 281 280 280 280 279 279 279 279 279 279 279 279 278 277 276 275 274 272 271 269 269 266 263 259 257 257 256 255 254 253 254
295 296 297 297 296 296 296 295 295 296 297 297 297 297 296 296 295 295 296 297 298 299 300 299 297 295 293 292 291 291 290 289 288 287 286 286 287 289 291 293 294 294 293 292 291 290 289 289 288 288 287 286 285 284 283 282 281 281 280 279 279 279 279 279 279 279 279 278 277 275 274 273 272 270 269 269 267 264 260 257 256 256 255 254 252 252
296 296 296 294 293 292 292 291 292 293 295 295 296 295 294 294 293 293 294 296 298 300 300 299 298 295 293 292 291 292 292 290 288 286 286 287 289 291 292 294 294 294 292 291 290 289 289 288 288 288 287 286 285 284 283 282 282 281 281 280 279 279 279 279 279 278 278 278 277 276 275 274 272 270 268 267 265 263 259 257 256 255 255 254 253 252
296 296 295 294 292 291 290 289 290 292 293 294 294 294 293 292 293 293 295 297 299 300 301 301 298 296 293 292 293 294 293 292 289 288 289 290 292 293 293 294 294 293 291 290 289 288 288 287 286 285 284 283 282 282 281 280 280 280 279 279 278 277 278 278 279 279 278 278 278 278 277 276 274 272 270 268 265 262 259 257 256 256 256 255 255 254
294 296 295 294 292 291 290 290 291 293 294 293 291 290 291 293 295 296 298 299 300 301 303 302 299 295 292 291 293 295 295 293 292 291 292 292 293 294 294 294 293 292 291 289 289 288 287 285 285 285 285 286 287 287 285 282 280 278 276 274 273 273 275 277 278 279 280 280 279 278 277 276 274 273 271 269 266 263 261 259 259 259 258 256 255 254
292 293 294 292 290 288 288 290 293 295 294 291 288 287 290 294 297 299 300 300 301 303 304 303 299 294 291 292 295 297 297 296 294 293 292 292 292 293 293 292 291 291 290 289 288 287 287 288 290 292 293 295 298 299 298 295 291 286 281 276 273 274 276 277 279 281 282 281 281 279 278 275 272 270 267 265 262 259 258 257 258 257 256 254 253 253
291 291 290 289 288 286 287 290 295 298 298 294 292 292 293 296 298 300 301 302 303 305 305 302 298 294 294 297 300 301 299 296 294 293 292 292 292 292 292 292 291 290 289 288 288 289 293 298 301 302 300 300 301 302 302 302 301 298 294 289 286 283 283 283 283 284 284 282 280 278 276 274 273 271 267 262 258 254 252 252 252 251 249 248 248 249
291 290 288 287 287 289 293 298 302 304 303 301 300 300 299 299 300 301 302 302 303 304 303 300 297 296 298 301 302 301 299 296 294 293 293 292 292 292 292 293 292 291 291 292 295 298 300 301 301 300 299 298 298 297 296 296 295 294 293 290 288 287 286 285 286 285 284 282 279 276 275 275 275 274 271 265 259 255 253 253 251 249 246 244 244 244
291 290 288 287 290 296 303 306 307 307 305 303 301 300 300 300 301 301 301 301 301 300 299 299 298 298 299 299 299 299 298 296 294 293 292 292 292 292 292 292 292 292 295 300 302 301 298 296 295 294 294 294 293 292 290 289 287 286 285 284 284 283 283 283 283 283 282 280 278 277 276 276 277 275 272 268 264 261 259 258 256 252 247 243 241 241
290 289 290 293 298 303 306 307 306 304 302 300 298 297 297 299 300 300 299 299 299 299 299 299 298 298 298 298 298 297 296 293 292 291 291 291 291 291 291 290 290 291 295 298 298 297 295 294 293 292 292 293 293 292 291 289 287 285 285 284 284 283 283 282 281 281 280 279 278 278 277 277 276 275 273 270 267 265 264 263 261 257 251 245 242 240
290 292 296 301 304 305 305 305 303 301 300 299 297 297 296 297 298 298 298 298 299 300 300 299 298 298 297 297 297 296 294 292 291 291 291 291 291 291 291 289 289 291 294 296 297 296 295 292 291 291 293 294 295 294 293 291 290 289 288 288 287 285 284 282 280 278 277 277 276 276 277 276 275 273 270 268 266 264 264 264 263 260 255 249 244 242
296 302 306 307 306 305 304 303 302 301 300 299 297 296 295 295 295 296 296 297 299 300 300 300 299 299 298 298 298 297 294 292 291 292 293 293 293 293 291 289 290 293 295 296 296 294 293 290 288 290 292 294 294 294 293 292 292 291 290 288 286 284 281 279 278 277 276 274 274 274 274 273 272 270 267 264 261 260 260 261 261 260 257 253 249 246
307 309 309 307 305 303 303 302 301 299 298 296 294 292 292 292 293 294 295 295 297 298 298 299 299 300 300 300 300 298 297 296 296 297 297 296 296 296 293 292 293 295 295 294 293 292 289 288 288 291 292 293 293 293 292 292 291 290 289 288 287 285 283 283 284 285 284 282 278 275 272 271 270 268 265 261 258 257 257 258 258 259 258 255 253 250
309 308 306 304 302 301 301 300 299 297 296 294 292 290 290 290 292 294 294 295 296 298 298 299 299 298 298 299 299 299 300 300 300 300 298 297 296 296 294 293 292 292 291 290 289 288 287 289 291 292 293 293 293 292 291 290 289 289 290 291 291 291 290 291 291 291 290 289 285 281 276 271 268 265 263 260 258 256 256 257 259 260 260 258 256 254
306 304 303 302 300 299 299 298 296 294 293 291 290 290 292 295 298 300 300 300 300 299 299 299 298 296 295 294 295 297 299 299 299 297 296 293 292 292 291 290 289 287 286 285 285 287 290 292 294 294 294 293 293 293 293 292 292 291 291 290 291 291 292 292 292 291 289 288 287 284 280 275 270 266 263 261 259 259 259 260 261 262 263 262 260 258
302 301 300 299 298 297 296 295 293 291 289 289 292 297 301 305 306 305 304 302 301 299 298 297 295 294 293 292 293 294 296 296 294 292 291 290 290 291 291 289 285 283 282 284 288 293 295 296 295 294 293 293 294 295 294 293 292 290 289 289 289 291 292 292 291 290 289 287 286 284 281 277 274 270 267 265 263 263 263 263 263 264 264 264 263 261
299 297 296 296 295 294 293 292 291 290 291 295 302 308 309 309 307 304 302 300 298 296 295 293 292 291 291 291 292 293 294 293 291 289 289 289 289 289 289 287 285 285 288 292 295 297 297 297 295 293 292 291 291 291 291 290 289 289 290 290 291 292 293 292 291 289 287 284 282 280 279 277 275 274 272 270 268 267 266 266 265 264 264 264 264 262
294 294 294 294 293 291 290 290 290 292 298 306 311 311 309 306 303 300 298 297 295 294 292 291 290 290 289 289 290 292 293 291 288 288 289 288 287 287 288 290 294 297 298 298 299 299 298 296 294 292 291 292 292 291 291 290 290 290 290 291 292 292 291 289 288 287 285 281 277 275 275 275 274 274 273 272 270 269 268 267 266 265 264 263 263 261
292 292 293 294 293 292 291 291 294 300 307 311 310 308 304 302 299 297 295 294 293 292 291 291 290 290 290 290 290 291 292 290 289 288 287 286 285 287 293 300 304 302 299 299 300 299 297 295 293 292 293 294 294 294 293 292 292 291 292 293 293 292 291 291 291 292 290 286 281 276 273 271 270 270 270 270 269 269 268 267 266 265 264 263 262 260
294 294 294 294 293 292 293 296 301 306 309 308 306 303 301 298 296 294 293 293 292 292 292 292 292 291 290 290 290 291 292 293 292 289 285 284 286 291 299 304 304 302 299 299 298 297 296 294 293 294 295 295 295 294 293 293 294 295 297 297 297 297 297 297 297 295 292 289 284 279 274 271 269 268 268 268 268 268 268 267 266 266 265 264 262 260
296 295 294 293 292 292 293 299 304 306 306 305 303 301 299 297 295 294 294 293 293 293 293 293 291 291 291 292 293 294 296 296 293 288 285 287 292 297 300 303 303 301 299 298 298 296 295 295 296 297 297 296 296 295 295 297 300 302 303 302 301 300 299 296 292 288 285 282 280 278 275 273 271 269 269 268 268 268 267 266 266 265 264 263 262 259
297 296 294 293 292 293 296 301 304 305 304 303 301 300 299 298 297 297 296 295 295 295 294 293 292 292 294 296 297 297 297 296 292 290 293 298 300 300 301 302 301 299 298 297 297 297 298 299 299 299 298 297 296 296 298 302 306 307 305 302 300 299 298 296 292 287 284 281 280 278 277 274 272 271 269 268 268 267 266 265 264 264 263 262 261 258
299 299 297 296 295 298 302 304 305 304 303 302 300 299 299 299 299 298 296 296 296 295 295 293 293 294 296 297 297 297 297 296 296 299 304 305 302 300 300 301 301 299 297 297 298 299 300 300 299 299 298 297 297 299 301 304 305 303 300 298 298 299 300 299 297 294 291 288 284 281 278 275 273 271 269 268 267 266 264 263 262 262 261 260 258 256
304 303 301 300 301 304 305 305 305 304 303 302 301 301 300 300 298 297 295 296 296 295 294 293 293 295 297 297 297 296 297 297 300 305 307 305 300 297 299 301 301 299 298 299 300 301 301 300 300 300 299 299 299 300 301 301 299 297 296 296 297 299 300 300 299 297 294 290 286 282 279 276 274 273 271 269 266 264 262 261 260 259 257 256 255 253
307 305 303 303 304 305 305 305 305 304 304 304 304 303 302 300 297 295 295 296 296 294 293 293 294 296 297 298 297 297 297 298 301 305 307 304 299 297 299 300 300 299 301 303 305 305 303 301 301 301 300 299 299 299 299 298 296 296 297 298 301 303 305 305 304 301 297 292 287 283 280 278 276 275 272 269 266 262 259 257 256 254 253 252 251 249
308 306 305 305 305 306 306 305 305 305 306 305 305 304 303 300 297 295 295 296 295 294 294 295 296 297 298 298 298 298 298 299 302 306 307 304 300 298 299 299 298 299 304 309 310 308 305 303 302 301 299 298 298 298 298 298 298 298 299 302 305 309 312 313 313 310 306 301 295 289 284 281 278 276 273 268 264 259 256 253 251 250 249 248 247 247
308 307 306 306 306 306 306 305 305 305 306 306 306 305 303 301 299 297 297 296 295 295 295 297 297 298 298 299 300 300 300 301 304 307 307 303 299 298 298 297 297 299 305 310 311 308 306 304 303 300 299 298 298 298 299 300 300 299 300 303 306 310 314 316 316 315 313 310 304 296 288 284 285 285 279 271 263 257 252 249 247 245 245 244 244 244
308 307 307 307 307 307 306 305 305 306 306 306 306 305 304 302 300 298 297 297 296 296 296 297 297 297 297 298 298 298 298 301 303 305 305 301 297 296 296 295 297 301 305 308 305 302 301 300 301 300 299 299 299 299 300 300 299 299 300 303 307 311 314 316 317 316 315 314 308 299 291 297 308 306 289 275 264 254 247 243 241 240 240 240 241 242
308 308 307 307 307 307 306 306 306 306 306 306 305 304 303 302 300 299 298 298 298 297 297 296 297 297 298 298 297 296 296 298 300 302 302 298 296 295 294 295 298 303 306 305 301 297 293 292 295 298 299 299 299 299 299 299 299 299 302 305 309 313 316 317 317 317 318 317 312 306 306 329 340 323 288 268 259 250 240 235 233 232 233 234 235 237
309 308 308 308 307 307 307 307 307 306 306 305 304 304 303 302 301 300 299 299 298 297 297 296 296 297 298 298 297 295 296 296 299 301 300 296 293 292 293 296 300 304 306 304 300 296 292 290 292 296 299 299 299 299 299 299 300 301 304 308 311 313 315 316 317 319 322 322 320 321 340 9 23 14 272 252 248 243 234 227 225 224 226 229 232 234
310 309 309 309 309 308 308 308 307 307 306 306 305 304 303 303 302 301 300 299 298 298 297 296 296 296 296 295 295 294 295 296 299 302 300 295 291 291 294 298 302 304 303 300 298 296 294 293 293 295 298 299 299 299 299 300 302 304 306 308 310 312 313 315 319 323 327 328 328 336 6 40 60 76 139 220 229 228 225 221 218 218 220 224 229 233
310 310 310 310 310 310 309 309 308 308 307 307 306 305 304 304 303 302 301 301 300 299 298 299 299 298 296 294 293 292 293 297 300 301 299 294 292 292 295 299 301 301 299 297 295 295 294 294 294 295 296 297 298 299 300 302 303 305 307 308 309 311 313 318 324 329 331 330 330 340 22 62 79 93 125 183 205 209 211 211 210 209 211 214 219 224
311 311 311 311 311 310 310 309 309 308 308 307 307 306 305 304 303 303 302 303 304 303 302 302 302 302 300 299 296 294 295 298 300 299 296 294 293 294 296 298 298 297 295 294 293 293 293 293 294 295 296 295 297 299 301 303 305 306 306 307 310 313 318 325 330 333 332 329 327 341 41 76 91 107 134 170 189 194 196 196 194 195 197 200 204 208
312 312 312 312 311 310 310 310 309 309 308 307 307 306 305 305 305 305 305 305 306 305 304 303 302 302 301 301 301 300 300 299 299 297 296 296 297 298 297 296 296 295 294 292 292 291 291 292 293 296 297 296 296 297 299 302 305 306 306 308 312 317 323 329 333 334 331 326 325 5 69 89 103 121 144 165 177 179 177 175 172 172 174 179 185 191
313 312 312 312 311 311 310 309 309 309 308 308 307 307 306 306 307 307 307 307 306 304 303 302 302 302 302 303 303 303 302 300 299 298 298 300 300 300 298 296 295 295 295 293 292 291 291 292 294 296 297 296 296 296 298 300 302 304 306 310 315 322 327 330 332 333 330 325 343 69 84 99 115 135 153 167 169 162 156 152 150 149 150 153 158 165
313 312 312 312 311 310 310 309 309 309 309 309 308 308 308 308 308 308 308 308 306 305 304 304 304 304 304 304 304 303 302 300 300 301 302 303 303 302 300 297 296 295 295 293 292 293 294 295 294 293 292 293 294 295 297 298 299 302 306 310 314 318 324 328 331 333 330 327 72 83 89 104 122 142 158 164 157 147 140 137 137 138 140 139 138 139
313 312 311 311 311 310 310 309 309 309 309 309 309 309 309 310 309 309 309 309 308 307 307 308 307 307 306 305 304 303 303 303 304 306 306 306 305 303 301 298 296 295 294 295 295 295 296 295 293 291 290 290 291 292 294 296 298 301 305 307 309 313 319 326 330 333 329 55 105 96 96 108 124 140 153 155 145 137 135 133 132 134 137 137 136 133
312 311 311 311 311 311 311 311 311 311 310 310 310 310 310 310 310 310 310 309 309 310 310 310 309 307 306 306 306 306 307 308 310 311 311 309 307 304 301 299 297 297 297 299 300 300 299 297 294 291 290 290 291 292 294 295 298 301 303 304 308 311 316 324 331 336 331 125 116 107 105 111 122 133 140 137 132 130 132 132 132 132 132 132 134 135
312 312 311 311 312 312 312 312 312 312 312 312 311 311 311 311 311 311 310 309 310 310 310 310 309 308 307 308 308 309 311 313 315 315 313 311 308 305 303 302 302 303 304 305 304 304 303 301 298 294 293 293 293 293 293 295 297 300 302 305 306 306 308 319 328 338 96 129 121 113 110 114 121 129 133 129 126 124 125 127 128 129 129 129 130 132
312 312 312 312 313 313 313 313 312 313 313 312 312 312 312 313 313 312 311 310 310 310 311 311 311 311 310 309 309 311 313 316 318 318 316 313 311 308 307 307 307 308 308 306 305 304 304 302 300 300 300 299 297 295 294 294 296 300 304 306 304 301 303 312 320 334 123 131 124 118 114 117 123 128 128 124 119 116 114 115 117 119 121 123 123 123
313 313 314 314 314 313 313 313 313 313 313 312 312 313 313 314 315 314 312 312 311 312 312 313 314 313 311 310 311 312 314 317 319 319 318 315 313 312 311 311 310 309 307 304 302 300 299 299 300 302 304 303 301 299 297 298 301 303 304 301 298 300 306 312 313 155 125 130 126 120 118 120 125 126 124 118 112 106 103 102 102 103 107 110 112 113
315 314 314 315 314 314 314 314 314 314 314 314 314 314 315 316 316 315 315 314 313 313 314 316 316 314 312 312 313 314 315 317 319 320 318 317 316 316 316 314 312 309 304 299 295 293 293 295 298 302 305 307 307 307 307 304 301 298 295 293 295 300 309 309 282 143 130 129 127 124 122 124 127 126 122 117 113 109 106 104 102 101 102 105 107 108
315 315 314 314 314 314 314 315 315 316 315 315 315 315 316 317 317 317 317 316 316 315 316 318 318 316 314 313 314 315 316 318 319 320 320 320 321 322 322 320 317 312 304 297 291 288 289 292 296 301 307 314 315 312 306 299 292 288 287 289 295 302 307 294 170 142 132 130 129 129 129 127 125 122 118 114 110 108 107 108 109 110 112 113 113 113
316 315 315 315 315 315 315 316 316 316 316 316 316 317 317 318 319 318 318 318 318 318 319 320 320 318 316 315 315 317 318 319 320 320 321 324 327 329 330 329 327 322 313 302 292 286 285 290 294 301 311 318 318 310 299 290 284 283 284 289 295 299 294 215 153 140 133 132 132 133 133 128 121 117 114 110 104 101 101 103 107 111 115 119 121 122
315 315 315 315 315 315 315 316 316 316 316 316 317 317 318 320 321 320 319 318 319 320 321 322 321 319 317 316 317 319 321 322 322 323 325 329 332 335 337 338 337 334 328 317 301 286 283 292 302 308 309 306 305 302 292 285 281 279 282 287 289 280 230 166 147 138 133 131 132 133 132 127 122 120 118 110 103 99 98 99 101 104 110 116 121 124
316 316 315 315 315 315 315 316 317 317 317 317 316 317 318 320 321 321 320 320 321 322 323 324 323 321 319 318 319 321 323 324 324 326 329 333 336 339 341 344 346 346 344 343 337 314 284 281 299 316 311 298 295 296 291 278 272 272 274 272 257 208 168 151 141 135 131 129 129 128 126 122 120 120 118 112 107 104 101 99 98 99 101 107 111 115
316 316 316 316 316 316 316 317 317 317 317 317 316 316 318 318 319 320 321 321 322 324 325 326 325 324 321 321 322 323 324 325 326 328 331 335 339 342 345 350 353 354 354 356 354 333 284 255 279 339 343 317 288 285 297 269 249 237 224 209 181 161 149 140 135 131 129 127 125 123 121 118 117 116 115 113 110 106 103 101 99 99 99 101 102 103
Height
1348 1345 1343 1342 1341 1338 1334 1333 1332 1330 1327 1325 1324 1322 1320 1319 1317 1316 1315 1313 1311 1310 1308 1306 1304 1302 1300 1298 1297 1296 1294 1292 1291 1289 1288 1286 1285 1283 1282 1280 1279 1277 1276 1275 1273 1272 1271 1270 1269 1268 1267 1266 1265 1265 1264 1263 1263 1262 1262 1262 1262 1262 1262 1262 1262 1262 1262 1262 1262 1262 1262 1263 1263 1263 1264 1264 1263 1263 1264 1264 1264 1265 1265 1266 1266 1266
1346 1344 1342 1341 1339 1336 1332 1331 1330 1329 1326 1323 1321 1320 1318 1316 1314 1313 1311 1310 1309 1307 1306 1303 1301 1300 1298 1296 1294 1293 1291 1290 1288 1286 1285 1283 1282 1280 1279 1277 1276 1274 1273 1272 1271 1269 1268 1267 1266 1265 1264 1263 1262 1261 1261 1261 1260 1259 1259 1258 1259 1259 1259 1259 1259 1259 1258 1258 1258 1258 1259 1259 1259 1260 1260 1260 1260 1260 1260 1261 1261 1261 1262 1262 1263 1264
1345 1342 1340 1338 1337 1334 1331 1328 1327 1326 1325 1322 1320 1318 1316 1314 1312 1310 1308 1307 1306 1305 1303 1301 1299 1297 1295 1293 1291 1290 1288 1287 1285 1284 1282 1281 1279 1278 1276 1275 1273 1272 1270 1269 1267 1266 1265 1264 1263 1262 1261 1260 1259 1259 1258 1257 1257 1256 1256 1255 1255 1255 1256 1256 1256 1255 1255 1255 1255 1255 1255 1255 1256 1256 1256 1256 1256 1256 1256 1257 1257 1258 1259 1259 1260 1261
1343 1340 1337 1336 1335 1332 1330 1327 1325 1323 1322 1320 1318 1316 1314 1312 1310 1308 1306 1305 1303 1302 1300 1299 1297 1295 1292 1291 1289 1287 1286 1284 1282 1281 1279 1278 1276 1275 1274 1272 1271 1269 1268 1266 1265 1263 1262 1261 1260 1259 1258 1257 1256 1256 1255 1254 1254 1253 1252 1252 1251 1252 1252 1252 1252 1252 1252 1252 1252 1252 1252 1252 1252 1252 1252 1252 1252 1253 1253 1253 1254 1255 1255 1256 1257 1257
1341 1339 1336 1334 1332 1330 1328 1326 1324 1321 1320 1318 1316 1314 1312 1310 1308 1306 1304 1302 1301 1299 1297 1296 1294 1292 1290 1288 1286 1284 1282 1281 1279 1278 1276 1275 1274 1272 1271 1270 1268 1267 1265 1263 1261 1260 1259 1258 1256 1255 1255 1254 1253 1252 1252 1251 1251 1250 1250 1249 1249 1249 1249 1249 1249 1249 1249 1249 1249 1249 1249 1249 1249 1249 1249 1249 1249 1249 1250 1250 1251 1251 1252 1253 1254 1254
1339 1338 1335 1333 1331 1328 1325 1324 1322 1320 1318 1315 1313 1311 1310 1308 1306 1304 1302 1300 1298 1297 1295 1293 1291 1290 1287 1285 1283 1281 1279 1278 1276 1275 1273 1272 1271 1270 1269 1267 1266 1264 1262 1260 1259 1257 1256 1255 1254 1252 1251 1251 1250 1249 1249 1248 1247 1247 1246 1246 1246 1246 1246 1246 1246 1246 1246 1246 1246 1246 1245 1245 1245 1245 1246 1246 1246 1246 1246 1247 1247 1248 1249 1250 1250 1251
1337 1336 1334 1331 1328 1326 1323 1321 1319 1318 1316 1313 1310 1308 1306 1305 1303 1301 1300 1298 1296 1294 1292 1290 1288 1286 1285 1282 1281 1279 1277 1276 1274 1272 1271 1269 1268 1267 1266 1264 1263 1261 1259 1257 1256 1254 1253 1252 1251 1250 1249 1248 1247 1246 1246 1245 1244 1244 1243 1243 1243 1243 1243 1243 1242 1242 1242 1242 1242 1242 1242 1242 1242 1242 1242 1242 1243 1243 1243 1244 1244 1245 1246 1246 1247 1248
1334 1332 1331 1329 1326 1322 1320 1318 1317 1316 1314 1311 1309 1306 1303 1301 1300 1299 1297 1296 1294 1292 1290 1287 1285 1284 1282 1280 1279 1277 1275 1273 1271 1270 1268 1267 1266 1265 1263 1261 1260 1258 1256 1254 1253 1251 1250 1249 1248 1247 1246 1245 1244 1243 1242 1242 1241 1241 1240 1240 1240 1240 1240 1240 1240 1240 1239 1239 1239 1239 1239 1239 1239 1239 1239 1240 1240 1240 1241 1241 1241 1242 1243 1243 1244 1245
1333 1330 1328 1327 1324 1321 1317 1315 1314 1313 1312 1310 1307 1304 1301 1299 1297 1296 1294 1293 1291 1290 1289 1286 1283 1281 1279 1278 1276 1275 1273 1271 1269 1267 1266 1265 1264 1262 1261 1259 1257 1255 1253 1251 1250 1249 1247 1246 1245 1244 1243 1242 1241 1240 1239 1238 1237 1237 1236 1236 1236 1236 1236 1236 1237 1236 1236 1236 1236 1236 1236 1236 1236 1237 1237 1237 1237 1238 1238 1238 1239 1240 1240 1241 1241 1242
1331 1329 1326 1323 1322 1320 1316 1312 1310 1310 1310 1308 1305 1302 1301 1298 1296 1294 1292 1290 1288 1287 1286 1284 1281 1278 1276 1274 1273 1272 1270 1269 1267 1266 1265 1263 1261 1260 1258 1256 1254 1252 1250 1249 1247 1246 1244 1243 1242 1241 1240 1239 1238 1237 1236 1236 1235 1234 1234 1233 1233 1233 1234 1234 1234 1234 1234 1234 1233 1233 1233 1233 1233 1233 1234 1234 1234 1235 1235 1236 1236 1237 1238 1238 1238 1238
1328 1326 1323 1320 1318 1316 1314 1311 1309 1308 1307 1305 1303 1301 1300 1298 1296 1294 1290 1287 1285 1284 1283 1282 1279 1276 1273 1271 1270 1269 1268 1266 1265 1263 1262 1260 1259 1257 1255 1253 1251 1250 1248 1246 1244 1243 1241 1240 1239 1238 1238 1237 1236 1235 1234 1233 1233 1232 1231 1231 1231 1231 1231 1231 1231 1231 1231 1231 1231 1230 1230 1230 1230 1230 1230 1230 1231 1231 1231 1231 1232 1233 1234 1234 1234 1235
1326 1323 1320 1317 1315 1313 1311 1309 1308 1306 1306 1304 1302 1300 1298 1297 1296 1294 1290 1286 1283 1281 1280 1277 1276 1274 1272 1270 1269 1267 1266 1265 1262 1260 1259 1257 1256 1254 1252 1250 1248 1246 1245 1243 1241 1241 1240 1239 1238 1237 1236 1236 1235 1234 1233 1232 1231 1231 1230 1230 1230 1229 1229 1228 1228 1228 1228 1227 1227 1227 1227 1227 1227 1227 1227 1227 1227 1228 1228 1228 1228 1229 1229 1230 1230 1231
1324 1321 1318 1315 1313 1311 1309 1308 1306 1305 1304 1303 1301 1299 1296 1295 1294 1292 1289 1286 1282 1280 1277 1275 1272 1271 1270 1269 1268 1266 1264 1262 1260 1258 1256 1254 1253 1251 1250 1247 1245 1243 1242 1241 1240 1240 1239 1238 1236 1235 1234 1233 1233 1232 1231 1231 1230 1229 1229 1228 1228 1227 1227 1226 1226 1226 1225 1225 1225 1225 1225 1224 1224 1224 1224 1225 1225 1225 1225 1225 1225 1225 1226 1226 1227 1228
1321 1319 1316 1314 1311 1310 1308 1307 1306 1304 1302 1301 1300 1298 1295 1293 1291 1290 1287 1283 1281 1278 1276 1273 1271 1268 1267 1266 1266 1265 1263 1260 1258 1256 1254 1252 1251 1249 1247 1245 1243 1242 1241 1240 1238 1237 1236 1235 1234 1232 1231 1230 1230 1229 1228 1228 1227 1227 1226 1226 1226 1225 1225 1224 1224 1223 1223 1223 1222 1222 1222 1222 1222 1222 1222 1222 1222 1222 1222 1222 1222 1222 1222 1223 1224 1224
1319 1317 1314 1312 1310 1309 1308 1306 1305 1303 1301 1300 1298 1296 1294 1291 1289 1287 1285 1281 1278 1276 1275 1272 1268 1266 1264 1263 1263 1262 1261 1258 1256 1253 1251 1249 1248 1247 1246 1243 1241 1239 1239 1238 1236 1235 1234 1233 1231 1230 1228 1227 1226 1226 1225 1225 1224 1223 1223 1223 1222 1222 1222 1222 1221 1221 1221 1220 1220 1220 1219 1219 1219 1219 1219 1219 1219 1219 1219 1219 1219 1219 1219 1220 1221 1221
1317 1316 1313 1311 1309 1308 1306 1305 1303 1301 1299 1297 1296 1294 1292 1289 1287 1285 1283 1280 1277 1275 1273 1270 1266 1262 1259 1259 1260 1261 1260 1257 1254 1251 1249 1246 1245 1244 1243 1241 1238 1237 1236 1235 1234 1232 1231 1230 1229 1228 1226 1225 1224 1223 1223 1222 1221 1221 1220 1220 1219 1219 1219 1218 1218 1218 1217 1217 1217 1216 1216 1216 1216 1216 1216 1216 1216 1216 1216 1216 1216 1216 1216 1217 1217 1218
1317 1315 1313 1311 1308 1306 1305 1304 1302 1300 1297 1295 1293 1291 1289 1287 1284 1282 1280 1278 1276 1273 1271 1269 1266 1261 1257 1255 1256 1258 1258 1256 1252 1250 1247 1244 1241 1241 1241 1239 1237 1235 1233 1232 1231 1229 1228 1227 1226 1226 1225 1223 1222 1221 1221 1220 1219 1218 1217 1216 1216 1216 1215 1215 1214 1214 1213 1212 1212 1213 1213 1213 1213 1213 1213 1213 1213 1213 1213 1213 1213 1213 1213 1214 1214 1215
1316 1314 1312 1310 1307 1305 1303 1301 1300 1297 1295 1293 1290 1288 1286 1284 1282 1280 1278 1276 1274 1271 1269 1267 1265 1262 1258 1254 1253 1254 1256 1255 1251 1248 1245 1241 1239 1238 1239 1238 1236 1233 1230 1228 1227 1227 1226 1226 1225 1224 1222 1221 1220 1219 1218 1217 1216 1216 1215 1214 1213 1212 1212 1211 1211 1211 1210 1209 1209 1209 1209 1209 1210 1210 1210 1210 1210 1209 1210 1210 1210 1210 1210 1211 1211 1212
1314 1313 1311 1308 1306 1303 1301 1299 1297 1295 1293 1290 1287 1285 1283 1281 1280 1279 1277 1275 1273 1271 1268 1266 1263 1261 1258 1255 1252 1252 1254 1253 1250 1246 1242 1238 1235 1235 1236 1235 1233 1230 1227 1226 1225 1224 1224 1224 1223 1222 1221 1219 1218 1217 1216 1215 1214 1213 1212 1211 1211 1210 1209 1208 1208 1207 1207 1206 1206 1206 1205 1205 1206 1206 1206 1206 1206 1206 1206 1206 1206 1207 1207 1207 1208 1209
1312 1311 1309 1307 1305 1302 1299 1297 1296 1293 1291 1288 1286 1284 1281 1279 1278 1277 1275 1274 1272 1270 1267 1265 1262 1259 1257 1254 1251 1250 1251 1250 1247 1243 1239 1235 1232 1231 1231 1231 1229 1226 1224 1223 1223 1223 1223 1222 1221 1219 1218 1217 1216 1215 1214 1213 1212 1211 1210 1209 1208 1207 1206 1205 1205 1204 1204 1203 1203 1202 1202 1202 1202 1202 1202 1202 1202 1202 1202 1203 1203 1203 1203 1204 1205 1205
1311 1308 1307 1306 1304 1301 1297 1294 1293 1291 1289 1287 1285 1283 1281 1278 1277 1275 1274 1272 1270 1267 1265 1263 1260 1257 1255 1252 1249 1247 1248 1247 1245 1241 1236 1232 1229 1227 1228 1227 1226 1224 1222 1221 1221 1221 1221 1220 1218 1216 1216 1215 1214 1213 1212 1211 1209 1208 1207 1206 1205 1204 1203 1202 1201 1201 1201 1200 1200 1200 1199 1199 1199 1198 1198 1198 1199 1199 1199 1199 1199 1199 1200 1200 1201 1202
1309 1306 1304 1303 1302 1299 1295 1292 1290 1289 1288 1286 1284 1281 1280 1278 1276 1273 1271 1269 1267 1264 1262 1260 1257 1255 1253 1250 1247 1245 1245 1245 1243 1240 1235 1230 1226 1224 1225 1225 1223 1221 1220 1219 1219 1219 1218 1217 1215 1214 1213 1212 1211 1210 1209 1208 1207 1205 1204 1203 1202 1201 1200 1199 1198 1198 1197 1197 1196 1196 1196 1196 1196 1196 1195 1195 1195 1195 1195 1195 1196 1196 1196 1197 1197 1198
1307 1304 1302 1301 1299 1296 1294 1291 1289 1287 1286 1284 1283 1281 1280 1278 1275 1272 1269 1267 1265 1262 1259 1256 1254 1251 1249 1246 1244 1242 1242 1242 1241 1238 1234 1229 1224 1222 1224 1223 1222 1220 1218 1218 1217 1216 1215 1213 1212 1211 1210 1209 1208 1207 1206 1205 1204 1202 1201 1199 1198 1197 1196 1195 1195 1194 1193 1193 1192 1192 1193 1192 1192 1192 1192 1191 1191 1191 1191 1191 1191 1192 1192 1193 1194 1194
1305 1302 1300 1298 1296 1294 1292 1290 1287 1285 1284 1283 1281 1280 1278 1276 1274 1271 1268 1265 1262 1260 1257 1254 1251 1248 1246 1244 1242 1241 1240 1240 1239 1237 1233 1227 1223 1221 1221 1221 1221 1218 1216 1216 1215 1214 1212 1210 1209 1208 1207 1206 1206 1205 1203 1202 1201 1199 1197 1196 1195 1194 1193 1192 1192 1191 1191 1190 1190 1189 1189 1188 1188 1188 1188 1187 1187 1187 1187 1187 1188 1188 1189 1190 1190 1191
1303 1301 1298 1296 1293 1292 1290 1287 1285 1284 1283 1282 1280 1277 1275 1273 1271 1268 1265 1263 1261 1258 1255 1252 1249 1246 1243 1242 1241 1239 1238 1238 1237 1234 1231 1226 1222 1221 1221 1221 1219 1217 1214 1213 1212 1211 1209 1207 1206 1205 1205 1203 1202 1201 1200 1199 1197 1195 1194 1193 1192 1191 1191 1190 1190 1189 1188 1187 1186 1186 1185 1185 1184 1184 1183 1183 1183 1183 1183 1183 1184 1184 1185 1186 1187 1188
1301 1299 1296 1293 1291 1290 1287 1285 1284 1283 1281 1280 1278 1276 1273 1270 1268 1265 1262 1261 1259 1256 1254 1250 1247 1244 1242 1241 1239 1237 1236 1235 1234 1232 1230 1226 1222 1220 1219 1219 1218 1216 1212 1210 1209 1209 1207 1205 1204 1202 1202 1200 1199 1198 1197 1196 1194 1193 1191 1191 1190 1189 1188 1187 1186 1185 1184 1183 1183 1182 1181 1181 1180 1180 1179 1179 1179 1179 1179 1179 1180 1181 1181 1182 1183 1184
1298 1296 1293 1291 1289 1286 1285 1283 1282 1280 1279 1277 1276 1274 1271 1269 1266 1263 1261 1259 1257 1256 1253 1249 1246 1242 1240 1239 1237 1235 1234 1233 1232 1230 1228 1226 1222 1219 1217 1217 1216 1214 1211 1208 1207 1206 1205 1203 1201 1200 1199 1197 1196 1195 1194 1193 1192 1191 1190 1189 1187 1186 1185 1184 1182 1182 1181 1180 1179 1178 1177 1176 1176 1175 1175 1175 1175 1175 1175 1176 1176 1177 1178 1179 1180 1180
1295 1292 1290 1288 1286 1284 1283 1281 1279 1277 1276 1274 1272 1271 1270 1268 1265 1262 1259 1257 1256 1254 1251 1248 1245 1241 1239 1236 1235 1233 1232 1231 1230 1229 1228 1226 1222 1218 1216 1216 1215 1212 1210 1206 1204 1203 1203 1201 1199 1197 1196 1195 1193 1192 1192 1191 1191 1189 1188 1186 1185 1183 1182 1181 1180 1179 1178 1177 1176 1175 1173 1173 1172 1171 1171 1171 1171 1171 1171 1172 1173 1174 1175 1176 1176 1176
1291 1290 1288 1286 1284 1282 1280 1278 1276 1274 1272 1271 1270 1269 1268 1266 1264 1261 1258 1256 1255 1252 1249 1246 1244 1241 1238 1235 1233 1231 1230 1230 1229 1228 1227 1225 1221 1217 1215 1215 1213 1211 1209 1205 1202 1200 1199 1199 1198 1196 1195 1193 1192 1191 1190 1189 1188 1187 1186 1184 1183 1181 1180 1179 1178 1176 1175 1174 1172 1171 1170 1169 1168 1167 1166 1166 1166 1167 1167 1168 1170 1171 1172 1172 1172 1172
1288 1287 1285 1283 1281 1280 1278 1275 1273 1271 1270 1268 1267 1266 1265 1264 1262 1260 1257 1255 1253 1251 1248 1245 1243 1241 1238 1235 1231 1228 1227 1227 1227 1227 1226 1224 1220 1216 1215 1213 1212 1210 1208 1206 1201 1197 1195 1195 1196 1196 1194 1192 1191 1190 1189 1187 1186 1185 1183 1181 1180 1179 1178 1177 1175 1174 1172 1171 1170 1168 1167 1166 1165 1164 1163 1162 1162 1162 1164 1165 1166 1167 1168 1168 1168 1169
1286 1284 1282 1280 1279 1277 1275 1273 1271 1269 1267 1266 1265 1264 1263 1261 1260 1258 1256 1254 1252 1250 1247 1245 1242 1240 1238 1235 1231 1227 1224 1225 1226 1226 1226 1223 1218 1215 1214 1212 1210 1209 1208 1207 1204 1199 1193 1191 1191 1193 1193 1191 1189 1188 1187 1186 1185 1183 1181 1180 1178 1177 1176 1175 1173 1172 1170 1168 1167 1166 1165 1163 1162 1161 1159 1158 1158 1159 1160 1161 1162 1163 1164 1164 1165 1165
1283 1282 1280 1278 1276 1274 1272 1271 1269 1267 1266 1264 1263 1261 1260 1259 1257 1256 1254 1253 1251 1249 1247 1244 1241 1239 1237 1235 1231 1228 1224 1223 1224 1225 1224 1222 1217 1213 1212 1211 1209 1207 1207 1207 1206 1203 1197 1191 1188 1189 1190 1189 1188 1186 1185 1185 1183 1182 1181 1179 1177 1175 1174 1173 1171 1170 1168 1166 1165 1164 1162 1161 1159 1158 1157 1156 1156 1156 1157 1158 1159 1160 1160 1161 1161 1162
1282 1280 1278 1276 1274 1272 1271 1269 1267 1266 1264 1262 1261 1259 1258 1257 1256 1254 1253 1251 1250 1248 1246 1243 1240 1237 1235 1233 1230 1227 1225 1223 1223 1223 1222 1220 1216 1212 1211 1209 1207 1206 1205 1205 1205 1203 1200 1194 1190 1188 1187 1187 1186 1185 1184 1183 1182 1181 1179 1178 1176 1174 1172 1171 1170 1168 1166 1165 1163 1162 1160 1158 1157 1156 1156 1155 1154 1154 1155 1156 1156 1157 1157 1158 1159 1160
1280 1278 1276 1274 1272 1271 1269 1267 1266 1264 1262 1261 1259 1257 1256 1255 1253 1252 1251 1249 1248 1246 1244 1242 1239 1236 1234 1231 1228 1225 1223 1222 1221 1221 1220 1218 1215 1211 1209 1207 1206 1205 1203 1202 1201 1200 1198 1195 1191 1189 1186 1184 1184 1183 1182 1181 1180 1179 1178 1177 1175 1173 1171 1170 1169 1167 1165 1163 1162 1161 1159 1157 1156 1156 1156 1154 1153 1153 1153 1154 1155 1156 1156 1157 1157 1158
1278 1276 1275 1273 1271 1269 1267 1265 1264 1262 1261 1259 1257 1256 1254 1253 1251 1250 1248 1246 1245 1244 1242 1240 1238 1236 1233 1230 1226 1223 1221 1219 1219 1219 1218 1216 1214 1211 1208 1206 1205 1204 1203 1201 1199 1198 1196 1193 1191 1190 1187 1184 1182 1181 1181 1180 1179 1178 1176 1176 1174 1173 1171 1170 1168 1166 1164 1162 1161 1160 1158 1157 1156 1155 1154 1153 1152 1152 1152 1153 1154 1155 1155 1156 1156 1157
1277 1275 1273 1271 1269 1267 1265 1264 1262 1260 1258 1257 1255 1254 1252 1251 1249 1247 1246 1244 1242 1241 1239 1237 1236 1234 1232 1229 1226 1222 1219 1217 1216 1216 1215 1214 1213 1211 1207 1204 1204 1203 1202 1200 1198 1196 1195 1192 1190 1189 1187 1184 1181 1179 1179 1179 1178 1177 1176 1174 1173 1172 1170 1169 1167 1166 1164 1162 1161 1160 1158 1156 1155 1154 1152 1151 1151 1151 1151 1152 1153 1153 1154 1155 1156 1156
1276 1274 1272 1270 1268 1266 1264 1262 1260 1258 1256 1255 1253 1251 1250 1248 1246 1245 1243 1241 1239 1237 1236 1234 1232 1230 1229 1227 1224 1221 1218 1215 1213 1212 1212 1212 1212 1210 1207 1204 1202 1202 1201 1199 1196 1195 1193 1191 1189 1187 1186 1185 1182 1180 1178 1177 1176 1176 1174 1173 1172 1171 1169 1168 1166 1166 1164 1163 1161 1160 1158 1156 1155 1154 1152 1151 1151 1151 1151 1151 1152 1152 1153 1154 1155 1155
1275 1272 1271 1269 1267 1265 1263 1261 1258 1257 1255 1253 1251 1249 1248 1246 1244 1242 1240 1238 1236 1235 1233 1231 1229 1227 1225 1223 1221 1218 1216 1213 1211 1211 1211 1211 1210 1208 1206 1203 1201 1200 1199 1198 1196 1194 1192 1191 1188 1186 1185 1183 1182 1180 1178 1177 1176 1174 1173 1172 1171 1170 1168 1167 1166 1166 1165 1163 1162 1161 1159 1157 1156 1154 1153 1152 1151 1151 1151 1151 1151 1152 1153 1153 1154 1155
1274 1271 1269 1267 1266 1264 1261 1259 1257 1255 1253 1251 1250 1247 1246 1244 1242 1240 1238 1236 1234 1232 1231 1229 1226 1224 1222 1220 1218 1216 1214 1212 1211 1210 1209 1208 1207 1205 1204 1201 1199 1197 1197 1196 1195 1193 1191 1190 1188 1186 1185 1182 1181 1179 1178 1177 1176 1174 1173 1171 1170 1168 1168 1167 1166 1166 1165 1164 1163 1161 1159 1157 1156 1155 1154 1153 1152 1151 1151 1151 1152 1152 1152 1153 1153 1154
1272 1270 1268 1266 1264 1262 1260 1258 1256 1254 1252 1250 1247 1246 1244 1242 1240 1238 1236 1234 1232 1231 1228 1226 1224 1221 1219 1217 1215 1213 1212 1211 1210 1208 1207 1206 1204 1203 1201 1199 1197 1196 1195 1194 1193 1192 1191 1189 1187 1186 1185 1183 1181 1179 1177 1177 1176 1175 1174 1172 1170 1168 1168 1167 1167 1166 1166 1165 1163 1162 1160 1158 1157 1156 1155 1154 1153 1153 1153 1152 1153 1153 1153 1153 1153 1154
1271 1269 1266 1264 1262 1260 1259 1256 1255 1252 1250 1248 1246 1244 1242 1240 1238 1236 1234 1232 1230 1228 1226 1224 1221 1219 1216 1215 1213 1212 1211 1209 1208 1206 1205 1203 1202 1200 1199 1198 1197 1196 1194 1193 1191 1190 1189 1188 1186 1185 1184 1182 1181 1179 1177 1176 1176 1175 1174 1173 1171 1169 1168 1168 1167 1167 1166 1166 1164 1163 1161 1160 1158 1157 1156 1156 1155 1155 1154 1154 1154 1154 1153 1153 1153 1154
1270 1267 1265 1263 1261 1259 1257 1255 1253 1251 1249 1247 1245 1243 1241 1239 1237 1235 1232 1230 1228 1226 1224 1221 1219 1216 1214 1213 1211 1210 1209 1207 1205 1204 1202 1201 1200 1199 1198 1197 1196 1194 1193 1191 1189 1188 1187 1186 1185 1184 1182 1181 1180 1178 1176 1175 1175 1174 1174 1173 1172 1170 1169 1169 1168 1168 1167 1166 1165 1164 1162 1161 1159 1158 1157 1157 1156 1156 1156 1155 1155 1155 1155 1154 1154 1154
1268 1266 1264 1262 1260 1257 1256 1253 1251 1249 1247 1245 1243 1241 1239 1238 1236 1233 1231 1229 1226 1224 1221 1219 1217 1216 1213 1211 1209 1207 1206 1205 1203 1202 1201 1199 1198 1197 1196 1195 1194 1192 1191 1189 1187 1186 1185 1184 1183 1182 1181 1181 1180 1178 1176 1175 1174 1174 1173 1173 1172 1172 1171 1170 1169 1169 1169 1168 1166 1165 1163 1162 1161 1160 1159 1159 1158 1158 1158 1157 1157 1156 1156 1156 1156 1156
1267 1265 1262 1260 1258 1256 1254 1252 1250 1248 1246 1244 1242 1240 1238 1236 1234 1232 1230 1227 1225 1222 1220 1218 1216 1215 1212 1210 1207 1205 1204 1202 1201 1200 1199 1198 1197 1196 1195 1193 1191 1190 1189 1188 1186 1185 1184 1183 1182 1181 1181 1180 1179 1178 1176 1175 1174 1173 1173 1173 1173 1172 1172 1171 1171 1171 1170 1169 1168 1166 1165 1163 1162 1162 1161 1161 1161 1160 1160 1160 1159 1159 1159 1158 1158 1158
1266 1264 1261 1259 1257 1255 1253 1251 1249 1246 1245 1242 1240 1238 1236 1234 1232 1231 1228 1226 1223 1221 1219 1217 1216 1214 1211 1209 1206 1204 1202 1201 1200 1199 1198 1197 1196 1194 1193 1191 1190 1188 1187 1186 1185 1184 1183 1182 1181 1180 1180 1179 1178 1177 1176 1174 1173 1173 1173 1173 1173 1172 1172 1172 1172 1171 1171 1170 1169 1168 1166 1165 1164 1163 1163 1163 1163 1163 1163 1163 1162 1162 1162 1162 1161 1161
1265 1262 1260 1258 1256 1254 1251 1250 1247 1245 1243 1241 1239 1237 1235 1233 1231 1229 1227 1225 1222 1220 1218 1217 1215 1213 1210 1208 1206 1204 1202 1200 1199 1198 1197 1195 1194 1192 1191 1189 1188 1187 1186 1185 1184 1183 1183 1182 1181 1180 1179 1178 1177 1176 1175 1174 1174 1174 1173 1173 1172 1172 1172 1172 1172 1172 1172 1171 1171 1170 1169 1167 1166 1165 1165 1165 1165 1166 1166 1166 1166 1166 1166 1166 1166 1166
1264 1261 1259 1256 1255 1252 1250 1248 1246 1244 1242 1240 1237 1235 1233 1231 1229 1227 1225 1223 1221 1220 1218 1216 1214 1212 1210 1207 1205 1203 1201 1200 1198 1197 1196 1194 1192 1191 1189 1187 1186 1185 1184 1183 1182 1182 1181 1181 1181 1180 1179 1178 1177 1176 1175 1175 1174 1174 1173 1173 1173 1172 1172 1173 1173 1173 1172 1172 1172 1171 1171 1170 1168 1167 1167 1167 1167 1168 1168 1168 1168 1169 1169 1170 1170 1170
1262 1260 1258 1256 1253 1251 1249 1247 1245 1243 1241 1238 1236 1234 1232 1230 1228 1226 1224 1222 1221 1219 1217 1215 1213 1211 1209 1207 1205 1203 1202 1200 1198 1196 1195 1193 1191 1189 1187 1186 1184 1183 1182 1181 1181 1181 1181 1181 1181 1180 1179 1178 1177 1176 1175 1174 1174 1174 1173 1173 1173 1173 1173 1174 1174 1174 1173 1173 1173 1172 1172 1171 1171 1170 1170 1170 1170 1171 1171 1171 1171 1171 1171 1172 1172 1173
1261 1259 1257 1254 1252 1250 1248 1246 1244 1242 1240 1237 1235 1232 1231 1229 1227 1226 1223 1221 1220 1218 1216 1214 1212 1210 1208 1206 1204 1203 1201 1200 1198 1196 1194 1192 1190 1188 1186 1185 1183 1182 1181 1180 1180 1180 1180 1180 1180 1180 1179 1178 1177 1176 1175 1174 1174 1174 1174 1174 1174 1174 1174 1175 1175 1175 1175 1174 1174 1174 1174 1173 1173 1173 1172 1172 1173 1174 1174 1175 1175 1175 1175 1175 1175 1176
1260 1258 1256 1254 1251 1249 1247 1245 1243 1241 1238 1236 1234 1231 1229 1227 1226 1224 1222 1221 1219 1218 1216 1214 1212 1210 1207 1206 1204 1202 1201 1199 1197 1196 1193 1191 1190 1188 1186 1184 1182 1181 1180 1179 1179 1179 1180 1180 1180 1179 1179 1178 1177 1176 1175 1175 1174 1174 1174 1174 1174 1175 1175 1176 1176 1176 1176 1176 1175 1175 1175 1175 1175 1175 1175 1175 1175 1176 1177 1178 1178 1179 1179 1179 1179 1179
1258 1256 1254 1252 1250 1248 1246 1244 1241 1239 1237 1235 1233 1231 1228 1226 1224 1223 1221 1220 1218 1217 1215 1213 1211 1209 1207 1206 1204 1202 1201 1199 1197 1195 1193 1191 1190 1188 1186 1184 1183 1181 1180 1180 1179 1179 1180 1180 1180 1179 1178 1178 1177 1176 1176 1175 1175 1175 1175 1175 1175 1176 1176 1176 1177 1177 1177 1177 1177 1176 1176 1177 1177 1177 1177 1177 1177 1179 1180 1181 1182 1183 1184 1184 1184 1184